Previsão horária em Caxambu

Hoje, 25 Julho, Domingo

Tempo Temperatura Precipitação Vento Pressão Humidade
00:00 +11°C° 0 mm 1 m/s 688 mmHg 60%
01:00 +11°C° 0 mm 1 m/s 688 mmHg 63%
02:00 +11°C° 0 mm 1 m/s 688 mmHg 66%
03:00 +10°C° 0 mm 1 m/s 688 mmHg 69%
04:00 +10°C° 0 mm 1 m/s 687 mmHg 71%
05:00 +10°C° 0 mm 1 m/s 687 mmHg 73%
06:00 +9°C° 0 mm 1 m/s 687 mmHg 76%
07:00 +12°C° 0 mm 1 m/s 688 mmHg 66%
08:00 +15°C° 0 mm 1 m/s 689 mmHg 57%
09:00 +19°C° 0 mm 1 m/s 690 mmHg 48%
10:00 +21°C° 0 mm 1 m/s 690 mmHg 41%
11:00 +23°C° 0 mm 2 m/s 690 mmHg 34%
12:00 +26°C° 0 mm 2 m/s 689 mmHg 27%
13:00 +26°C° 0 mm 2 m/s 689 mmHg 25%
14:00 +26°C° 0 mm 2 m/s 688 mmHg 23%
15:00 +27°C° 0 mm 2 m/s 688 mmHg 22%
16:00 +24°C° 0 mm 1 m/s 687 mmHg 27%
17:00 +21°C° 0 mm 1 m/s 687 mmHg 33%
18:00 +18°C° 0 mm 1 m/s 687 mmHg 39%
19:00 +16°C° 0 mm 1 m/s 687 mmHg 41%
20:00 +15°C° 0 mm 1 m/s 687 mmHg 43%
21:00 +14°C° 0 mm 1 m/s 688 mmHg 45%
22:00 +14°C° 0 mm 1 m/s 688 mmHg 49%
23:00 +13°C° 0 mm 1 m/s 687 mmHg 53%

Amanhã, 26 Julho, Segunda-feira

Tempo Temperatura Precipitação Vento Pressão Humidade
00:00 +12°C° 0 mm 1 m/s 687 mmHg 56%
01:00 +12°C° 0 mm 1 m/s 687 mmHg 60%
02:00 +11°C° 0 mm 1 m/s 687 mmHg 64%
03:00 +11°C° 0 mm 1 m/s 686 mmHg 67%
04:00 +11°C° 0 mm 1 m/s 687 mmHg 71%
05:00 +10°C° 0 mm 1 m/s 687 mmHg 74%
06:00 +10°C° 0 mm 1 m/s 687 mmHg 77%
07:00 +12°C° 0 mm 0 m/s 688 mmHg 67%
08:00 +15°C° 0 mm 0 m/s 688 mmHg 57%
09:00 +17°C° 0 mm 0 m/s 689 mmHg 48%
10:00 +21°C° 0 mm 1 m/s 689 mmHg 42%
11:00 +23°C° 0 mm 2 m/s 689 mmHg 36%
12:00 +25°C° 0 mm 2 m/s 689 mmHg 30%
13:00 +25°C° 0 mm 2 m/s 688 mmHg 28%
14:00 +26°C° 0 mm 2 m/s 687 mmHg 26%
15:00 +26°C° 0 mm 2 m/s 686 mmHg 25%
16:00 +24°C° 0 mm 1 m/s 686 mmHg 30%
17:00 +21°C° 0 mm 1 m/s 686 mmHg 35%
18:00 +18°C° 0 mm 1 m/s 685 mmHg 40%
19:00 +18°C° 0 mm 1 m/s 685 mmHg 42%
20:00 +16°C° 0 mm 1 m/s 686 mmHg 44%
21:00 +15°C° 0 mm 1 m/s 686 mmHg 46%
22:00 +14°C° 0 mm 1 m/s 686 mmHg 47%
23:00 +14°C° 0 mm 1 m/s 686 mmHg 49%

Depois de amanhã, 27 Julho, Terça-feira

Tempo Temperatura Precipitação Vento Pressão Humidade
00:00 +13°C° 0 mm 1 m/s 686 mmHg 51%
01:00 +13°C° 0 mm 1 m/s 686 mmHg 52%
02:00 +11°C° 0 mm 0 m/s 685 mmHg 54%
03:00 +11°C° 0 mm 0 m/s 685 mmHg 55%
04:00 +10°C° 0 mm 0 m/s 685 mmHg 56%
05:00 +10°C° 0 mm 0 m/s 685 mmHg 57%
06:00 +10°C° 0 mm 0 m/s 685 mmHg 57%
07:00 +13°C° 0 mm 0 m/s 686 mmHg 51%
08:00 +18°C° 0 mm 1 m/s 687 mmHg 45%
09:00 +20°C° 0 mm 1 m/s 687 mmHg 39%
10:00 +22°C° 0 mm 1 m/s 687 mmHg 36%
11:00 +24°C° 0 mm 2 m/s 687 mmHg 33%
12:00 +26°C° 0 mm 3 m/s 686 mmHg 30%
13:00 +27°C° 0 mm 3 m/s 686 mmHg 28%
14:00 +27°C° 0 mm 3 m/s 685 mmHg 26%
15:00 +28°C° 0 mm 3 m/s 684 mmHg 24%
16:00 +25°C° 0 mm 2 m/s 684 mmHg 29%
17:00 +23°C° 0 mm 1 m/s 684 mmHg 35%
18:00 +18°C° 0 mm 0 m/s 683 mmHg 40%
19:00 +19°C° 0 mm 1 m/s 683 mmHg 42%
20:00 +19°C° 0 mm 1 m/s 683 mmHg 44%
21:00 +18°C° 0 mm 1 m/s 683 mmHg 45%
22:00 +16°C° 0 mm 1 m/s 683 mmHg 46%
23:00 +16°C° 0 mm 1 m/s 683 mmHg 48%

28 Julho, Quarta-feira

Tempo Temperatura Precipitação Vento Pressão Humidade
00:00 +15°C° 0 mm 1 m/s 683 mmHg 49%
01:00 +15°C° 0 mm 1 m/s 683 mmHg 49%
02:00 +15°C° 0 mm 1 m/s 682 mmHg 50%
03:00 +14°C° 0 mm 1 m/s 682 mmHg 51%
04:00 +14°C° 0 mm 1 m/s 682 mmHg 52%
05:00 +13°C° 0 mm 1 m/s 682 mmHg 54%
06:00 +13°C° 0 mm 1 m/s 682 mmHg 56%
07:00 +16°C° 0 mm 1 m/s 683 mmHg 50%
08:00 +19°C° 0 mm 1 m/s 684 mmHg 44%
09:00 +22°C° 0 mm 1 m/s 685 mmHg 37%
10:00 +24°C° 0 mm 2 m/s 685 mmHg 34%
11:00 +26°C° 0 mm 3 m/s 684 mmHg 31%
12:00 +27°C° 0 mm 4 m/s 684 mmHg 27%
13:00 +28°C° 0 mm 4 m/s 684 mmHg 27%
14:00 +28°C° 0 mm 4 m/s 683 mmHg 27%
15:00 +29°C° 0 mm 4 m/s 682 mmHg 28%
16:00 +26°C° 0 mm 3 m/s 683 mmHg 37%
17:00 +22°C° 0 mm 3 m/s 683 mmHg 46%
18:00 +20°C° 0 mm 2 m/s 683 mmHg 55%
19:00 +19°C° 0 mm 2 m/s 684 mmHg 61%
20:00 +18°C° 0 mm 2 m/s 684 mmHg 67%
21:00 +18°C° 0 mm 1 m/s 685 mmHg 74%
22:00 +16°C° 0.1 mm 1 m/s 685 mmHg 78%
23:00 +16°C° 0.1 mm 1 m/s 685 mmHg 83%

29 Julho, Quinta-feira

Tempo Temperatura Precipitação Vento Pressão Humidade
00:00 +15°C° 0.1 mm 1 m/s 685 mmHg 88%
01:00 +15°C° 0 mm 1 m/s 685 mmHg 89%
02:00 +15°C° 0 mm 1 m/s 685 mmHg 91%
03:00 +15°C° 0 mm 1 m/s 685 mmHg 93%
04:00 +14°C° 0 mm 1 m/s 685 mmHg 93%
05:00 +14°C° 0 mm 1 m/s 685 mmHg 93%
06:00 +14°C° 0 mm 1 m/s 685 mmHg 94%
07:00 +14°C° 0 mm 1 m/s 685 mmHg 89%
08:00 +14°C° 0 mm 1 m/s 686 mmHg 85%
09:00 +14°C° 0 mm 2 m/s 686 mmHg 81%
10:00 +16°C° 0 mm 2 m/s 687 mmHg 67%
11:00 +18°C° 0 mm 3 m/s 687 mmHg 53%
12:00 +20°C° 0 mm 3 m/s 687 mmHg 39%
13:00 +20°C° 0 mm 4 m/s 687 mmHg 34%
14:00 +21°C° 0 mm 4 m/s 686 mmHg 30%
15:00 +21°C° 0 mm 4 m/s 686 mmHg 26%
16:00 +19°C° 0 mm 3 m/s 686 mmHg 33%
17:00 +16°C° 0 mm 3 m/s 686 mmHg 41%
18:00 +12°C° 0 mm 3 m/s 686 mmHg 48%
19:00 +10°C° 0 mm 3 m/s 687 mmHg 59%
20:00 +9°C° 0 mm 2 m/s 687 mmHg 70%
21:00 +7°C° 0 mm 2 m/s 688 mmHg 81%
22:00 +6°C° 0 mm 2 m/s 688 mmHg 84%
23:00 +6°C° 0 mm 2 m/s 688 mmHg 87%

30 Julho, Sexta-feira

Tempo Temperatura Precipitação Vento Pressão Humidade
00:00 +5°C° 0 mm 2 m/s 688 mmHg 90%
01:00 +4°C° 0 mm 2 m/s 688 mmHg 91%
02:00 +4°C° 0 mm 2 m/s 688 mmHg 91%
03:00 +3°C° 0 mm 2 m/s 688 mmHg 92%
04:00 +3°C° 0 mm 2 m/s 688 mmHg 91%
05:00 +3°C° 0 mm 2 m/s 689 mmHg 91%
06:00 +3°C° 0 mm 1 m/s 689 mmHg 90%
07:00 +6°C° 0 mm 1 m/s 689 mmHg 77%
08:00 +9°C° 0 mm 1 m/s 690 mmHg 64%
09:00 +12°C° 0 mm 1 m/s 690 mmHg 51%
10:00 +14°C° 0 mm 2 m/s 690 mmHg 43%
11:00 +16°C° 0 mm 2 m/s 690 mmHg 36%
12:00 +19°C° 0 mm 2 m/s 690 mmHg 29%
13:00 +19°C° 0 mm 2 m/s 690 mmHg 29%
14:00 +20°C° 0 mm 3 m/s 690 mmHg 29%
15:00 +20°C° 0 mm 3 m/s 689 mmHg 29%
16:00 +17°C° 0 mm 3 m/s 689 mmHg 41%
17:00 +13°C° 0 mm 3 m/s 689 mmHg 53%
18:00 +10°C° 0 mm 3 m/s 689 mmHg 65%
19:00 +9°C° 0 mm 3 m/s 690 mmHg 73%
20:00 +8°C° 0 mm 2 m/s 690 mmHg 81%
21:00 +7°C° 0 mm 2 m/s 690 mmHg 89%
22:00 +7°C° 0 mm 2 m/s 690 mmHg 90%
23:00 +6°C° 0 mm 2 m/s 691 mmHg 92%
Mostrar mais

Necessitamos do seu Consentimento

A Meteoprog e os seus Fornecedores de Serviços podem armazenar e aceder a dados pessoais como cookies, identificadores do dispositivo ou outras tecnologias semelhantes existentes no seu dispositivo e processar estes dados para personalizar conteúdos e anúncios, assim como funcionalidades nas redes sociais e análise de tráfego.

  • Armazenar e/ou aceder a informações no seu dispositivo

    Os cookies, identificadores do dispositivo ou outras informações podem ser armazenados ou acedidos no seu dispositivo, para os fins acima indicados.

  • Anúncios e conteúdos personalizados, medição de anúncios e conteúdos, dados sobre o público-alvo e desenvolvimento de produtos

    Os anúncios e os conteúdos podem ser personalizados com base num perfil. Podem ser adicionados dados adicionais para uma maior personalização dos anúncios e dos conteúdos. A eficácia dos anúncios e dos conteúdos pode ser medida. Podem ser obtidas informações sobre o público que visualizou os anúncios e os conteúdos. Estes dados podem ser usados para desenvolver ou melhorar sistemas, softwares ou a experiência do utilizador.

Ao clicar em "Eu concordo”, permitirá o uso de cookies, identificadores do dispositivo e web beacons mencionados ou outras tecnologias semelhantes. As configurações do navegador do seu dispositivo podem ser alteradas.

Para certos fins, podem ser invocados interesses legítimos ao invés de consentimento. Pode ler mais informação sobre este assunto na nossa Política de Privacidade e Cookies.